EW9957 Weather Reports


Display with metric or nautical units.
time (UTC)temp
F
wind
direction
speed
MPH
gust
MPH
rain 1hr
in
rain 24hr
in
rain mn
in
humidity
%
barometer
mb
20260904044022 66 35 2.0 4.0 0.00 0.00 0.00 83 1014.3
20260904043612 66 35 2.0 5.0 0.00 0.00 0.00 83 1014.3
20260904043530 66 35 2.0 5.0 0.00 0.00 0.00 83 1014.3
20260904043029 66 35 3.0 5.0 0.00 0.00 0.00 83 1014.3
20260904042527 66 34 2.0 4.0 0.00 0.00 0.00 83 1014.3
20260904042101 66 35 2.0 5.0 0.00 0.00 0.00 83 1014.3
20260904042018 66 35 2.0 5.0 0.00 0.00 0.00 83 1014.3
20260904041556 66 35 3.0 5.0 0.00 0.00 0.00 83 1014.3
20260904041514 66 35 3.0 5.0 0.00 0.00 0.00 83 1014.3
20260904041107 66 36 2.0 5.0 0.00 0.00 0.00 82 1014.3
20260904040558 66 38 4.0 5.0 0.00 0.00 0.00 82 1014.3
20260904040017 66 34 2.0 5.0 0.00 0.00 0.00 82 1014.3
20260904035531 66 37 3.0 5.0 0.00 0.00 0.00 82 1014.3
20260904035104 66 35 3.0 4.0 0.00 0.00 0.00 82 1014.2
20260904035022 66 35 3.0 4.0 0.00 0.00 0.00 82 1014.2
20260904034543 66 32 2.0 4.0 0.00 0.00 0.00 82 1014.0
20260904034055 66 35 1.0 4.0 0.00 0.00 0.00 82 1014.0
20260904033607 66 35 2.0 5.0 0.00 0.00 0.00 82 1013.9
20260904033107 66 37 3.0 5.0 0.00 0.00 0.00 81 1013.9
20260904032518 66 35 2.0 4.0 0.00 0.00 0.00 82 1013.8
20260904032111 66 38 3.0 4.0 0.00 0.00 0.00 81 1013.8
20260904031527 66 36 3.0 6.0 0.00 0.00 0.00 81 1013.7
20260904031020 67 38 4.0 6.0 0.00 0.00 0.00 81 1013.7
20260904030514 67 38 2.0 7.0 0.00 0.00 0.00 80 1013.6
20260904030015 67 34 4.0 7.0 0.00 0.00 0.00 80 1013.7
20260904025528 67 35 3.0 7.0 0.00 0.00 0.00 80 1013.7
20260904025103 67 34 4.0 7.0 0.00 0.00 0.00 79 1013.7
20260904025020 67 34 4.0 7.0 0.00 0.00 0.00 79 1013.7
20260904024521 67 35 4.0 6.0 0.00 0.00 0.00 79 1013.7
20260904024035 67 35 3.0 6.0 0.00 0.00 0.00 78 1013.6
20260904023547 68 35 5.0 6.0 0.00 0.00 0.00 78 1013.7
20260904023047 68 35 3.0 5.0 0.00 0.00 0.00 79 1013.6
20260904022539 68 37 4.0 8.0 0.00 0.00 0.00 78 1013.6
20260904022111 68 35 5.0 8.0 0.00 0.00 0.00 78 1013.6
20260904021527 68 35 4.0 7.0 0.00 0.00 0.00 78 1013.6
20260904021100 68 35 3.0 7.0 0.00 0.00 0.00 77 1013.6
20260904021018 68 35 3.0 7.0 0.00 0.00 0.00 77 1013.6
20260904020553 68 34 3.0 7.0 0.00 0.00 0.00 77 1013.6
20260904020032 69 36 4.0 7.0 0.00 0.00 0.00 76 1013.7
20260904015606 68 35 3.0 8.0 0.00 0.00 0.00 77 1013.7
20260904015524 68 35 3.0 8.0 0.00 0.00 0.00 77 1013.7
20260904015057 68 37 5.0 9.0 0.00 0.00 0.00 76 1013.8
20260904014555 68 34 5.0 9.0 0.00 0.00 0.00 76 1013.7
20260904014049 69 36 5.0 9.0 0.00 0.00 0.00 76 1013.8
20260904013521 69 34 6.0 9.0 0.00 0.00 0.00 74 1013.8
20260904013021 70 35 5.0 10.0 0.00 0.00 0.00 75 1013.8
20260904012533 69 34 5.0 11.0 0.00 0.00 0.00 74 1013.8
20260904012046 70 35 6.0 11.0 0.00 0.00 0.00 74 1013.8
20260904011608 70 34 6.0 9.0 0.00 0.00 0.00 74 1013.9
20260904011526 70 34 6.0 9.0 0.00 0.00 0.00 74 1013.9
20260904011019 70 32 6.0 10.0 0.00 0.00 0.00 74 1013.9
20260904010532 70 34 7.0 10.0 0.00 0.00 0.00 73 1014.0
20260904010032 70 35 6.0 12.0 0.00 0.00 0.00 73 1013.9
20260904005546 70 35 7.0 9.0 0.00 0.00 0.00 71 1013.9
20260904005018 71 35 7.0 12.0 0.00 0.00 0.00 71 1013.8
20260904004539 70 35 7.0 11.0 0.00 0.00 0.00 71 1013.8
20260904004031 71 35 8.0 11.0 0.00 0.00 0.00 70 1013.8
20260904003605 71 38 6.0 12.0 0.00 0.00 0.00 69 1013.8
20260904003043 72 35 8.0 12.0 0.00 0.00 0.00 69 1013.8
20260904002535 72 35 8.0 14.0 0.00 0.00 0.00 69 1013.8
20260904002027 72 35 8.0 15.0 0.00 0.00 0.00 70 1013.8
20260904001610 72 34 9.0 15.0 0.00 0.00 0.00 70 1013.9
20260904001528 72 34 9.0 15.0 0.00 0.00 0.00 70 1013.9
20260904001020 71 34 7.0 16.0 0.00 0.00 0.00 72 1014.0
20260904000514 71 36 7.0 16.0 0.00 0.00 0.00 73 1014.0
20260904000035 72 34 8.0 15.0 0.00 0.00 0.00 72 1013.9
20260903235607 71 34 9.0 16.0 0.00 0.00 0.00 73 1013.9
20260903235113 72 35 7.0 15.0 0.00 0.00 0.00 73 1014.0
20260903234553 73 36 9.0 15.0 0.00 0.00 0.00 71 1014.0
20260903234045 72 34 10.0 15.0 0.00 0.00 0.00 72 1014.0
20260903233558 72 35 9.0 15.0 0.00 0.00 0.00 71 1013.9
20260903233515 72 35 9.0 15.0 0.00 0.00 0.00 71 1013.9
20260903233014 73 36 11.0 15.0 0.00 0.00 0.00 70 1013.9
20260903232549 73 35 10.0 15.0 0.00 0.00 0.00 70 1014.0
20260903232101 73 32 7.0 18.0 0.00 0.00 0.00 70 1014.0
20260903232018 73 32 7.0 18.0 0.00 0.00 0.00 70 1014.0
20260903231537 74 35 8.0 17.0 0.00 0.00 0.00 70 1014.2
20260903231110 73 34 10.0 19.0 0.00 0.00 0.00 68 1014.0
20260903231028 73 34 10.0 19.0 0.00 0.00 0.00 68 1014.0
20260903230541 73 35 11.0 19.0 0.00 0.00 0.00 71 1014.0
20260903225514 74 34 9.0 15.0 0.00 0.00 0.00 68 1014.1
20260903225108 74 35 9.0 14.0 0.00 0.00 0.00 68 1014.1
20260903225026 74 35 9.0 14.0 0.00 0.00 0.00 68 1014.1
20260903224524 74 32 8.0 14.0 0.00 0.00 0.00 68 1014.2
20260903224059 74 35 9.0 14.0 0.00 0.00 0.00 69 1014.2
20260903223552 75 35 10.0 14.0 0.00 0.00 0.00 67 1014.2
20260903223031 74 35 8.0 16.0 0.00 0.00 0.00 67 1014.3
20260903222604 75 36 10.0 15.0 0.00 0.00 0.00 67 1014.2
20260903222522 75 36 10.0 15.0 0.00 0.00 0.00 67 1014.2
20260903222115 74 35 6.0 15.0 0.00 0.00 0.00 66 1014.3
20260903222032 74 35 6.0 15.0 0.00 0.00 0.00 66 1014.3
20260903221548 75 35 9.0 17.0 0.00 0.00 0.00 68 1014.2
20260903221101 74 35 10.0 13.0 0.00 0.00 0.00 63 1014.4
20260903220534 75 32 7.0 13.0 0.00 0.00 0.00 63 1014.4
20260903220013 75 35 9.0 13.0 0.00 0.00 0.00 61 1014.5
20260903215527 75 34 7.0 13.0 0.00 0.00 0.00 64 1014.4
20260903215100 75 35 10.0 15.0 0.00 0.00 0.00 67 1014.5
20260903215018 75 35 10.0 15.0 0.00 0.00 0.00 67 1014.5
20260903214610 75 35 10.0 16.0 0.00 0.00 0.00 66 1014.5
20260903214527 75 35 10.0 16.0 0.00 0.00 0.00 66 1014.5
20260903214101 75 35 9.0 16.0 0.00 0.00 0.00 67 1014.5
20260903213552 75 35 11.0 16.0 0.00 0.00 0.00 67 1014.6
20260903213053 75 35 10.0 15.0 0.00 0.00 0.00 67 1014.6
20260903212606 75 35 9.0 15.0 0.00 0.00 0.00 67 1014.6
20260903212523 75 35 9.0 15.0 0.00 0.00 0.00 67 1014.6
20260903212038 75 36 9.0 13.0 0.00 0.00 0.00 68 1014.6
20260903211535 75 35 8.0 15.0 0.00 0.00 0.00 67 1014.6
20260903211050 75 35 7.0 15.0 0.00 0.00 0.00 68 1014.6
20260903210603 75 34 8.0 13.0 0.00 0.00 0.00 68 1014.6
20260903210520 75 34 8.0 13.0 0.00 0.00 0.00 68 1014.6
20260903210112 75 35 8.0 16.0 0.00 0.00 0.00 66 1014.6
20260903205543 74 38 9.0 16.0 0.00 0.00 0.00 69 1014.6
20260903205055 75 34 7.0 12.0 0.00 0.00 0.00 68 1014.6
20260903204531 75 34 8.0 14.0 0.00 0.00 0.00 68 1014.6
20260903204104 75 36 8.0 15.0 0.00 0.00 0.00 69 1014.6
20260903203515 75 35 8.0 15.0 0.00 0.00 0.00 69 1014.7
20260903203035 74 34 9.0 15.0 0.00 0.00 0.00 69 1014.8
20260903202604 75 32 7.0 14.0 0.00 0.00 0.00 68 1014.8
20260903202522 75 32 7.0 14.0 0.00 0.00 0.00 68 1014.8
20260903202041 75 36 9.0 14.0 0.00 0.00 0.00 68 1014.8
20260903201558 74 32 6.0 12.0 0.00 0.00 0.00 68 1014.8
20260903201516 74 32 6.0 12.0 0.00 0.00 0.00 68 1014.8
20260903201014 75 35 8.0 12.0 0.00 0.00 0.00 66 1014.9
20260903200605 75 34 9.0 13.0 0.00 0.00 0.00 66 1014.8
20260903200522 75 34 9.0 13.0 0.00 0.00 0.00 66 1014.8
20260903200041 75 36 7.0 11.0 0.00 0.00 0.00 66 1014.8
20260903195513 76 38 7.0 12.0 0.00 0.00 0.00 65 1014.9
20260903195107 75 34 7.0 14.0 0.00 0.00 0.00 66 1015.0
20260903195024 75 34 7.0 14.0 0.00 0.00 0.00 66 1015.0
20260903194614 75 34 10.0 15.0 0.00 0.00 0.00 66 1015.1
20260903194046 76 36 7.0 15.0 0.00 0.00 0.00 66 1015.0
20260903193559 75 35 7.0 15.0 0.00 0.00 0.00 66 1015.1
20260903193108 75 36 6.0 14.0 0.00 0.00 0.00 65 1015.1
20260903193025 75 36 6.0 14.0 0.00 0.00 0.00 65 1015.1
20260903192539 75 34 8.0 14.0 0.00 0.00 0.00 65 1015.2
20260903192053 75 36 7.0 12.0 0.00 0.00 0.00 65 1015.2
20260903191532 76 36 5.0 15.0 0.00 0.00 0.00 65 1015.2
20260903191047 76 34 9.0 13.0 0.00 0.00 0.00 63 1015.2
20260903190558 76 35 10.0 13.0 0.00 0.00 0.00 63 1015.3
20260903190516 76 35 10.0 13.0 0.00 0.00 0.00 63 1015.3
20260903190016 76 35 9.0 13.0 0.00 0.00 0.00 62 1015.3
20260903185610 76 34 7.0 13.0 0.00 0.00 0.00 61 1015.4
20260903185528 76 34 7.0 13.0 0.00 0.00 0.00 61 1015.4
20260903185101 77 32 8.0 12.0 0.00 0.00 0.00 60 1015.5
20260903184611 77 36 8.0 12.0 0.00 0.00 0.00 60 1015.6
20260903184041 77 36 6.0 12.0 0.00 0.00 0.00 60 1015.7
20260903183535 76 35 6.0 12.0 0.00 0.00 0.00 60 1015.8
20260903183057 76 36 9.0 12.0 0.00 0.00 0.00 61 1015.9
20260903183014 76 36 9.0 12.0 0.00 0.00 0.00 61 1015.9
20260903182527 76 36 5.0 11.0 0.00 0.00 0.00 61 1015.9
20260903182042 76 35 7.0 11.0 0.00 0.00 0.00 61 1015.9
20260903181559 77 35 3.0 9.0 0.00 0.00 0.00 61 1016.0
20260903181013 76 35 6.0 9.0 0.00 0.00 0.00 61 1015.9
20260903180549 76 38 3.0 9.0 0.00 0.00 0.00 60 1015.9
20260903180107 76 35 2.0 9.0 0.00 0.00 0.00 60 1016.0
20260903180025 76 35 2.0 9.0 0.00 0.00 0.00 60 1016.0
20260903175522 75 35 5.0 10.0 0.00 0.00 0.00 59 1016.0
20260903175037 75 35 2.0 7.0 0.00 0.00 0.00 58 1016.0
20260903174515 75 35 2.0 7.0 0.00 0.00 0.00 61 1016.1
20260903174029 75 34 4.0 7.0 0.00 0.00 0.00 61 1016.1
20260903173523 75 36 2.0 5.0 0.00 0.00 0.00 61 1016.1
20260903173106 74 36 2.0 5.0 0.00 0.00 0.00 62 1016.1
20260903173024 74 36 2.0 5.0 0.00 0.00 0.00 62 1016.1
20260903172537 74 34 3.0 5.0 0.00 0.00 0.00 61 1016.0
20260903172110 73 36 1.0 6.0 0.00 0.00 0.00 63 1016.1
20260903172027 73 36 1.0 6.0 0.00 0.00 0.00 63 1016.1
20260903171610 73 34 2.0 6.0 0.00 0.00 0.00 64 1016.0
20260903171528 73 34 2.0 6.0 0.00 0.00 0.00 64 1016.0
20260903171021 73 35 2.0 5.0 0.00 0.00 0.00 64 1016.1
20260903170535 72 35 2.0 5.0 0.00 0.00 0.00 62 1016.2
20260903170012 72 35 1.0 7.0 0.00 0.00 0.00 66 1016.2
20260903165548 71 35 3.0 6.0 0.00 0.00 0.00 67 1016.2
20260903165021 71 34 3.0 5.0 0.00 0.00 0.00 69 1016.2
20260903164604 71 32 3.0 10.0 0.00 0.00 0.00 69 1016.2
20260903164522 71 32 3.0 10.0 0.00 0.00 0.00 69 1016.2
20260903164034 70 35 1.0 10.0 0.00 0.00 0.00 71 1016.2
20260903163607 70 38 4.0 9.0 0.00 0.00 0.00 70 1016.2
20260903163524 70 38 4.0 9.0 0.00 0.00 0.00 70 1016.2
20260903163045 70 36 1.0 7.0 0.00 0.00 0.00 72 1016.2
20260903162537 69 35 1.0 6.0 0.00 0.00 0.00 73 1016.2
20260903162051 69 37 3.0 6.0 0.00 0.00 0.00 74 1016.3
20260903161529 68 36 4.0 6.0 0.00 0.00 0.00 74 1016.3
20260903161042 69 34 2.0 5.0 0.00 0.00 0.00 74 1016.3
20260903160515 69 34 3.0 5.0 0.00 0.00 0.00 76 1016.4
20260903160034 68 35 2.0 4.0 0.00 0.00 0.00 75 1016.3
20260903155527 68 35 1.0 2.0 0.00 0.00 0.00 77 1016.3
20260903155101 68 35 1.0 2.0 0.00 0.00 0.00 78 1016.3
20260903155018 68 35 1.0 2.0 0.00 0.00 0.00 78 1016.3
20260903154518 68 34 0.0 2.0 0.00 0.00 0.00 77 1016.4
20260903154113 68 36 1.0 4.0 0.00 0.00 0.00 76 1016.4
20260903154030 68 36 1.0 4.0 0.00 0.00 0.00 76 1016.4
20260903153543 67 35 1.0 4.0 0.00 0.00 0.00 74 1016.4
20260903153038 67 34 2.0 5.0 0.00 0.00 0.00 73 1016.4
20260903152610 67 34 1.0 5.0 0.00 0.00 0.00 74 1016.5
20260903152042 66 37 1.0 4.0 0.00 0.00 0.00 74 1016.5
20260903151541 65 36 2.0 6.0 0.00 0.00 0.00 75 1016.4
20260903151112 65 35 4.0 6.0 0.00 0.00 0.00 75 1016.4
20260903151030 65 35 4.0 6.0 0.00 0.00 0.00 75 1016.4
20260903150544 64 36 3.0 6.0 0.00 0.00 0.00 77 1016.4
20260903150105 64 37 2.0 6.0 0.00 0.00 0.00 78 1016.5
20260903145617 63 36 3.0 6.0 0.00 0.00 0.00 79 1016.4
20260903145047 63 35 3.0 6.0 0.00 0.00 0.00 79 1016.5
20260903144609 63 38 3.0 6.0 0.00 0.00 0.00 79 1016.5
20260903144042 63 35 3.0 8.0 0.00 0.00 0.00 80 1016.4
20260903143555 62 34 4.0 8.0 0.00 0.00 0.00 80 1016.3
20260903143055 62 36 5.0 8.0 0.00 0.00 0.00 81 1016.3
20260903142547 61 35 5.0 8.0 0.00 0.00 0.00 82 1016.2
20260903142019 61 34 4.0 8.0 0.00 0.00 0.00 83 1016.1
20260903141541 61 35 4.0 8.0 0.00 0.00 0.00 84 1016.1
20260903141114 61 36 5.0 8.0 0.00 0.00 0.00 84 1016.1
20260903141031 61 36 5.0 8.0 0.00 0.00 0.00 84 1016.1
20260903140605 61 35 5.0 9.0 0.00 0.00 0.00 85 1016.0
20260903140045 61 37 4.0 9.0 0.00 0.00 0.00 85 1015.9
20260903135559 60 35 5.0 8.0 0.00 0.00 0.00 85 1015.8
20260903135105 60 37 3.0 6.0 0.00 0.00 0.00 86 1015.7
20260903134527 60 38 4.0 8.0 0.00 0.00 0.00 86 1015.7
20260903134021 60 35 4.0 8.0 0.00 0.00 0.00 86 1015.7
20260903133515 60 35 4.0 8.0 0.00 0.00 0.00 86 1015.6
20260903133015 60 34 5.0 9.0 0.00 0.00 0.00 86 1015.6
20260903132548 60 35 5.0 9.0 0.00 0.00 0.00 86 1015.6
20260903132040 60 34 4.0 9.0 0.00 0.00 0.00 87 1015.5
20260903131603 60 35 4.0 7.0 0.00 0.00 0.00 87 1015.5
20260903131520 60 35 4.0 7.0 0.00 0.00 0.00 87 1015.5
20260903131054 60 36 5.0 8.0 0.00 0.00 0.00 87 1015.5
20260903130608 60 34 4.0 8.0 0.00 0.00 0.00 87 1015.5
20260903130041 60 38 4.0 7.0 0.00 0.00 0.00 87 1015.5
20260903125517 60 35 4.0 6.0 0.00 0.00 0.00 87 1015.5
20260903125031 60 34 3.0 6.0 0.00 0.00 0.00 87 1015.5
20260903124610 61 34 4.0 6.0 0.00 0.00 0.00 87 1015.5
20260903124025 61 38 4.0 7.0 0.00 0.00 0.00 87 1015.4
20260903123537 61 34 5.0 6.0 0.00 0.00 0.00 87 1015.4
20260903123015 61 34 4.0 6.0 0.00 0.00 0.00 87 1015.4
20260903122604 61 34 3.0 6.0 0.00 0.00 0.00 87 1015.4
20260903122041 61 32 4.0 8.0 0.00 0.00 0.00 87 1015.4
20260903121520 61 32 4.0 8.0 0.00 0.00 0.00 88 1015.4
20260903121033 61 35 4.0 7.0 0.00 0.00 0.00 88 1015.3
20260903120547 61 36 4.0 8.0 0.00 0.00 0.00 88 1015.3
20260903120041 60 36 4.0 7.0 0.00 0.00 0.00 88 1015.3
20260903115553 61 34 5.0 7.0 0.00 0.00 0.00 88 1015.4
20260903115106 61 35 4.0 7.0 0.00 0.00 0.00 89 1015.4
20260903115024 61 35 4.0 7.0 0.00 0.00 0.00 89 1015.4
20260903114616 61 34 4.0 6.0 0.00 0.00 0.00 89 1015.4
20260903114534 61 34 4.0 6.0 0.00 0.00 0.00 89 1015.4
20260903114027 60 32 4.0 6.0 0.00 0.00 0.00 89 1015.5
20260903113541 60 34 3.0 6.0 0.00 0.00 0.00 89 1015.5
20260903113112 60 36 2.0 4.0 0.00 0.00 0.00 89 1015.5
20260903113030 60 36 2.0 4.0 0.00 0.00 0.00 89 1015.5
20260903112603 61 36 0.0 2.0 0.00 0.00 0.00 89 1015.5
20260903112055 61 35 1.0 2.0 0.00 0.00 0.00 89 1015.5
20260903111555 61 37 0.0 0.0 0.00 0.00 0.00 88 1015.5
20260903111047 61 36 0.0 2.0 0.00 0.00 0.00 89 1015.5
20260903110559 60 34 1.0 1.0 0.00 0.00 0.00 88 1015.5
20260903110059 61 34 0.0 0.0 0.00 0.00 0.00 88 1015.6
20260903105530 61 34 0.0 0.0 0.00 0.00 0.00 88 1015.6
20260903105044 61 36 0.0 0.0 0.00 0.00 0.00 88 1015.6
20260903104544 61 36 0.0 0.0 0.00 0.00 0.00 88 1015.6
20260903104015 61 36 0.0 0.0 0.00 0.00 0.00 88 1015.7
20260903103529 61 34 0.0 0.0 0.00 0.00 0.00 88 1015.7
20260903103049 61 34 0.0 0.0 0.00 0.00 0.00 88 1015.7
20260903102542 61 35 0.0 1.0 0.00 0.00 0.00 88 1015.8
20260903102054 61 36 0.0 2.0 0.00 0.00 0.00 87 1015.8
20260903101536 61 36 0.0 2.0 0.00 0.00 0.00 87 1015.9
20260903101049 61 36 0.0 0.0 0.00 0.00 0.00 87 1015.9
20260903100521 61 34 0.0 1.0 0.00 0.00 0.00 87 1015.9
20260903100114 62 36 0.0 2.0 0.00 0.00 0.00 87 1016.0
20260903100031 62 36 0.0 2.0 0.00 0.00 0.00 87 1016.0
20260903095604 62 35 0.0 0.0 0.00 0.00 0.00 87 1016.0
20260903095522 62 35 0.0 0.0 0.00 0.00 0.00 87 1016.0
20260903095035 62 34 0.0 2.0 0.00 0.00 0.00 87 1016.1
20260903094556 62 37 0.0 2.0 0.00 0.00 0.00 86 1016.1
20260903094027 63 35 1.0 3.0 0.00 0.00 0.00 86 1016.2
20260903093541 63 35 0.0 4.0 0.00 0.00 0.00 86 1016.2
20260903093112 63 34 2.0 5.0 0.00 0.00 0.00 86 1016.2
20260903093030 63 34 2.0 5.0 0.00 0.00 0.00 86 1016.2
20260903092604 63 34 3.0 5.0 0.00 0.00 0.00 86 1016.2
20260903092521 63 34 3.0 5.0 0.00 0.00 0.00 86 1016.2
20260903092035 63 34 3.0 4.0 0.00 0.00 0.00 87 1016.2
20260903091515 63 36 2.0 4.0 0.00 0.00 0.00 87 1016.3
20260903091107 63 36 2.0 4.0 0.00 0.00 0.00 87 1016.4
20260903090558 63 35 2.0 4.0 0.00 0.00 0.00 87 1016.3
20260903090516 63 35 2.0 4.0 0.00 0.00 0.00 87 1016.3
20260903090016 63 36 2.0 4.0 0.00 0.00 0.00 87 1016.3
20260903085610 63 38 2.0 4.0 0.00 0.00 0.00 87 1016.4
20260903085528 63 38 2.0 4.0 0.00 0.00 0.00 87 1016.4
20260903085101 63 34 2.0 4.0 0.00 0.00 0.00 87 1016.4
20260903084557 63 34 2.0 4.0 0.00 0.00 0.00 87 1016.4
20260903084027 63 32 2.0 4.0 0.00 0.00 0.00 87 1016.4
20260903083601 63 32 3.0 4.0 0.00 0.00 0.00 87 1016.5
20260903083518 63 32 3.0 4.0 0.00 0.00 0.00 87 1016.5
20260903083111 63 38 3.0 4.0 0.00 0.00 0.00 87 1016.6
20260903082603 63 35 2.0 5.0 0.00 0.00 0.00 87 1016.6
20260903082520 63 35 2.0 5.0 0.00 0.00 0.00 87 1016.6
20260903082014 63 35 3.0 5.0 0.00 0.00 0.00 87 1016.7
20260903081515 63 38 3.0 5.0 0.00 0.00 0.00 87 1016.7
20260903081049 63 37 3.0 6.0 0.00 0.00 0.00 87 1016.6
20260903080601 64 34 3.0 4.0 0.00 0.00 0.00 87 1016.6
20260903080039 64 34 1.0 3.0 0.00 0.00 0.00 87 1016.7
20260903075610 64 36 1.0 4.0 0.00 0.00 0.00 87 1016.7
20260903075528 64 36 1.0 4.0 0.00 0.00 0.00 87 1016.7
20260903075101 63 34 2.0 4.0 0.00 0.00 0.00 87 1016.7
20260903074612 64 35 3.0 4.0 0.00 0.00 0.00 88 1016.8
20260903074530 64 35 3.0 4.0 0.00 0.00 0.00 88 1016.8
20260903074105 64 38 1.0 3.0 0.00 0.00 0.00 88 1016.8
20260903074022 64 38 1.0 3.0 0.00 0.00 0.00 88 1016.8
20260903073514 63 36 0.0 1.0 0.00 0.00 0.00 87 1016.8
20260903073033 63 34 0.0 2.0 0.00 0.00 0.00 87 1016.7
20260903072547 63 35 0.0 2.0 0.00 0.00 0.00 87 1016.7
20260903072039 63 35 0.0 0.0 0.00 0.00 0.00 87 1016.7
20260903071541 63 32 0.0 0.0 0.00 0.00 0.00 86 1016.7
20260903071033 63 35 0.0 2.0 0.00 0.00 0.00 87 1016.7
20260903070525 63 35 0.0 2.0 0.00 0.00 0.00 87 1016.7
20260903070107 64 35 0.0 0.0 0.00 0.00 0.00 87 1016.7
20260903065541 64 36 0.0 0.0 0.00 0.00 0.00 87 1016.7
20260903065053 64 35 0.0 0.0 0.00 0.00 0.00 87 1016.8
20260903064552 64 35 0.0 0.0 0.00 0.00 0.00 87 1016.7
20260903064045 64 38 0.0 0.0 0.00 0.00 0.00 87 1016.7
20260903063518 64 36 0.0 0.0 0.00 0.00 0.00 86 1016.6
20260903063038 64 35 0.0 0.0 0.00 0.00 0.00 86 1016.8
20260903062550 64 38 0.0 0.0 0.00 0.00 0.00 86 1016.7
20260903062042 64 35 0.0 0.0 0.00 0.00 0.00 86 1016.7
20260903061613 64 36 0.0 0.0 0.00 0.00 0.00 85 1016.8
20260903061530 64 36 0.0 0.0 0.00 0.00 0.00 85 1016.8
20260903061044 64 35 0.0 1.0 0.00 0.00 0.00 85 1016.8
20260903060557 65 36 0.0 2.0 0.00 0.00 0.00 85 1016.8
20260903060014 65 38 1.0 2.0 0.00 0.00 0.00 85 1016.8
20260903055548 65 35 0.0 2.0 0.00 0.00 0.00 85 1016.8
20260903055101 65 38 1.0 2.0 0.00 0.00 0.00 85 1016.8
20260903054539 65 38 0.0 2.0 0.00 0.00 0.00 85 1016.9
20260903054106 65 35 0.0 2.0 0.00 0.00 0.00 85 1016.9
20260903054024 65 35 0.0 2.0 0.00 0.00 0.00 85 1016.9
20260903053557 65 37 0.0 2.0 0.00 0.00 0.00 85 1017.0
20260903053514 65 37 0.0 2.0 0.00 0.00 0.00 85 1017.0
20260903053014 65 34 1.0 2.0 0.00 0.00 0.00 84 1017.0
20260903052529 65 35 0.0 0.0 0.00 0.00 0.00 84 1017.0
20260903052026 65 38 0.0 0.0 0.00 0.00 0.00 84 1017.0
20260903051615 65 35 0.0 0.0 0.00 0.00 0.00 84 1017.0
20260903051048 65 36 0.0 0.0 0.00 0.00 0.00 84 1017.1
20260903050601 65 38 0.0 0.0 0.00 0.00 0.00 84 1017.0
20260903050111 65 36 0.0 0.0 0.00 0.00 0.00 83 1017.0
20260903045541 65 35 0.0 0.0 0.00 0.00 0.00 83 1017.0
20260903045013 65 36 0.0 0.0 0.00 0.00 0.00 82 1017.0
20260903044515 65 36 0.0 0.0 0.00 0.00 0.00 82 1017.0
20260903044108 66 38 0.0 0.0 0.00 0.00 0.00 81 1016.9